User: anonymous
Location: Mactaquac Provincial Park
(45.9573°N, 66.8897°W)
Time: 10:35:20
(UTC-03:00)
Language:

Cosmos 1867 - Orbit

View from above orbital plane
View from above orbital plane
View from above satellite
View from above satellite

Ground track
Ground track

The orbit data is extracted from the following two-line orbital elements,

1 18187U 87060A   14107.90060513 -.00000021  00000-0  30121-4 0   269
2 18187 065.0115 224.6418 0017526 260.0406 235.3814 14.31018386398541
Epoch (UTC): 17 April 2014 21:36:52
Eccentricity: 0.0017526
inclination: 65.0115°
perigee height: 776 km
apogee height: 801 km
right ascension of ascending node: 224.6418°
argument of perigee: 260.0406°
revolutions per day: 14.31018386
mean anomaly at epoch: 235.3814°
orbit number at epoch: 39854

The dashed part of the orbit path shows where the satellite is in the earth's shadow,  

DLR